Voltar ao catálogo

FENGYUN 1C DEB

LostPO
NORAD 32172·DEBRIS·🇨🇳 China

Lançado May 10, 1999 de Taiyuan Satellite Launch Center

Loading…

Próximas Passagens (próximas 24 horas)

TLE

ObsoletoSource: Space-Track

Época: Nov 26, 2025, 12:51 UTC

1 32172U 99025CTS 25330.53577150  .00118102  00000-0  25261-2 0  9997
2 32172  99.0358  71.7393 0036380 341.0180  18.9705 15.43655730979956

Acompanhe FENGYUN 1C DEB em tempo real com AllMySat

Download on the App Store